Richmond, VA

2:34 AM EDT on May 25, 2018 (GMT -0400)
Richmond International

Weather History for KRIC - October, 2013

Change the Weather History Date:

Friday, October 4, 2013

  Actual Average Record
Temperature  
Mean Temperature 78 °F 64 °F  
Max Temperature 91 °F 75 °F 94 °F (1954)
Min Temperature 64 °F 53 °F 28 °F (1974)
Degree Days  
Heating Degree Days 0 4  
Month to date heating degree days 0 13  
Since 1 July heating degree days 13 42  
Cooling Degree Days 13 2  
Month to date cooling degree days 32 10  
Year to date cooling degree days 1631 1514  
Growing Degree Days 28 (Base 50)    
Moisture  
Dew Point 63 °F    
Average Humidity 66    
Maximum Humidity 93    
Minimum Humidity 38    
Precipitation  
Precipitation 0.00 in 0.10 in 2.04 in (1964)
Month to date precipitation 0.00 0.39  
Year to date precipitation 40.26 34.51  
Snow  
Snow 0.00 in 0.00 in 0.00 in (2002)
Month to date snowfall 0.0 0.0  
Since 1 July snowfall 0.0 0.0  
Snow Depth 0.00 in    
Sea Level Pressure  
Sea Level Pressure 30.08 in    
Wind  
Wind Speed 3 mph (SW)    
Max Wind Speed 8 mph    
Max Gust Speed 12 mph    
Visibility 9 miles    
Events      
T = Trace of Precipitation, MM = Missing Value Source: NWS Daily Summary

Daily Weather History Graph

Daily Weather History Graph

Search for Another Location

Airport or City:

Astronomy

Oct. 04, 2013 Rise Set
Actual Time 7:07 AM EDT 6:47 PM EDT
Civil Twilight 6:41 AM EDT 7:13 PM EDT
Nautical Twilight 6:11 AM EDT 7:43 PM EDT
Astronomical Twilight 5:40 AM EDT 8:14 PM EDT
Moon 6:40 AM EDT (10/4) 6:29 PM EDT (10/4)
Length of Visible Light 12h 32m
Length of Day
11h 39m
Waning Crescent, 0% of the Moon is Illuminated
Oct 4
Waning Crescent
Oct 4
New
Oct 11
First Quarter
Oct 18
Full
Oct 26
Last Quarter

Hourly Weather History & Observations

Time (EDT) Temp. Heat Index Dew Point Humidity Pressure Visibility Wind Dir Wind Speed Gust Speed Precip Events Conditions
12:54 AM 69.1 °F - 63.0 °F 81% 30.08 in 10.0 mi SE 3.5 mph - N/A   Mostly Cloudy
1:54 AM 69.1 °F - 63.0 °F 81% 30.08 in 10.0 mi South 3.5 mph - N/A   Mostly Cloudy
2:54 AM 68.0 °F - 63.0 °F 84% 30.08 in 10.0 mi South 3.5 mph - N/A   Partly Cloudy
3:54 AM 66.0 °F - 62.1 °F 87% 30.08 in 10.0 mi SSW 4.6 mph - N/A   Partly Cloudy
4:54 AM 66.0 °F - 62.1 °F 87% 30.08 in 9.0 mi South 3.5 mph - N/A   Partly Cloudy
5:54 AM 66.0 °F - 62.1 °F 87% 30.09 in 9.0 mi South 3.5 mph - N/A   Mostly Cloudy
6:54 AM 64.9 °F - 61.0 °F 87% 30.09 in 6.0 mi South 3.5 mph - N/A   Scattered Clouds
7:54 AM 64.9 °F - 62.1 °F 90% 30.10 in 8.0 mi South 4.6 mph - N/A   Scattered Clouds
8:54 AM 71.1 °F - 63.0 °F 75% 30.11 in 9.0 mi SW 4.6 mph - N/A   Scattered Clouds
9:54 AM 75.9 °F - 63.0 °F 64% 30.12 in 10.0 mi WSW 4.6 mph - N/A   Scattered Clouds
10:54 AM 81.0 °F 82.2 °F 63.0 °F 54% 30.11 in 10.0 mi NW 3.5 mph - N/A   Partly Cloudy
11:54 AM 84.0 °F 84.9 °F 63.0 °F 49% 30.11 in 10.0 mi West 5.8 mph - N/A   Partly Cloudy
12:54 PM 86.0 °F 85.7 °F 60.1 °F 41% 30.09 in 10.0 mi West 4.6 mph - N/A   Partly Cloudy
1:54 PM 88.0 °F 87.6 °F 60.1 °F 39% 30.06 in 10.0 mi NW 6.9 mph - N/A   Scattered Clouds
2:54 PM 90.0 °F 89.7 °F 60.1 °F 37% 30.05 in 10.0 mi Calm Calm - N/A   Scattered Clouds
3:54 PM 89.1 °F 89.0 °F 61.0 °F 39% 30.05 in 10.0 mi NNW 4.6 mph - N/A   Partly Cloudy
4:54 PM 89.1 °F 89.3 °F 62.1 °F 40% 30.05 in 10.0 mi WNW 8.1 mph - N/A   Partly Cloudy
5:54 PM 86.0 °F 86.8 °F 63.0 °F 46% 30.05 in 10.0 mi NE 3.5 mph - N/A   Partly Cloudy
6:54 PM 80.1 °F 81.9 °F 64.9 °F 60% 30.05 in 10.0 mi Calm Calm - N/A   Partly Cloudy
7:54 PM 75.9 °F - 66.9 °F 74% 30.06 in 10.0 mi Calm Calm - N/A   Clear
8:54 PM 73.9 °F - 66.0 °F 76% 30.07 in 10.0 mi Calm Calm - N/A   Clear
9:54 PM 72.0 °F - 66.0 °F 81% 30.08 in 9.0 mi Calm Calm - N/A   Clear
10:54 PM 70.0 °F - 64.9 °F 84% 30.09 in 7.0 mi Calm Calm - N/A   Scattered Clouds
11:54 PM 70.0 °F - 64.9 °F 84% 30.08 in 7.0 mi Calm Calm - N/A   Scattered Clouds